| time (UTC) | temp F | wind direction | speed MPH | gust MPH | rain 1hr in | rain 24hr in | rain mn in | humidity % | barometer mb |
| 20260510011504 | 57 | 0 | 0.0 | 0.0 | 0.00 | 0.00 | 0.00 | 91 | 1029.8 |
| 20260510010005 | 57 | 0 | 0.0 | 0.0 | 0.00 | 0.00 | 0.00 | 91 | 1029.9 |
| 20260510004504 | 57 | 0 | 0.0 | 0.0 | 0.00 | 0.00 | 0.00 | 93 | 1029.9 |
| 20260510003005 | 57 | 0 | 0.0 | 0.0 | 0.00 | 0.00 | 0.00 | 94 | 1029.9 |
| 20260510001504 | 57 | 0 | 0.0 | 0.0 | 0.00 | 0.00 | 0.00 | 95 | 1029.9 |
| 20260510000004 | 57 | 0 | 0.0 | 0.0 | 0.00 | 0.00 | 0.00 | 95 | 1030.0 |
| 20260509234505 | 56 | 0 | 0.0 | 0.0 | 0.00 | 0.00 | 0.00 | 95 | 1029.9 |
| 20260509233004 | 56 | 0 | 0.0 | 0.0 | 0.00 | 0.00 | 0.00 | 96 | 1030.0 |
| 20260509231504 | 55 | 0 | 0.0 | 0.0 | 0.00 | 0.00 | 0.00 | 96 | 1029.9 |
| 20260509230004 | 55 | 0 | 0.0 | 0.0 | 0.00 | 0.00 | 0.00 | 95 | 1029.9 |
| 20260509224505 | 55 | 0 | 0.0 | 0.0 | 0.00 | 0.00 | 0.00 | 95 | 1029.8 |
| 20260509223005 | 55 | 0 | 0.0 | 0.0 | 0.00 | 0.00 | 0.00 | 95 | 1029.7 |
| 20260509221504 | 55 | 0 | 0.0 | 0.0 | 0.00 | 0.00 | 0.00 | 95 | 1029.6 |
| 20260509214504 | 54 | 0 | 0.0 | 0.0 | 0.00 | 0.00 | 0.00 | 95 | 1029.0 |
| 20260509213004 | 54 | 0 | 0.0 | 0.0 | 0.00 | 0.00 | 0.00 | 95 | 1028.9 |
| 20260509211504 | 54 | 0 | 0.0 | 0.0 | 0.00 | 0.00 | 0.00 | 95 | 1028.8 |
| 20260509210005 | 54 | 0 | 0.0 | 0.0 | 0.00 | 0.00 | 0.00 | 95 | 1028.5 |
| 20260509204504 | 54 | 0 | 0.0 | 0.0 | 0.00 | 0.00 | 0.00 | 95 | 1028.5 |
| 20260509203004 | 54 | 0 | 0.0 | 0.0 | 0.00 | 0.00 | 0.00 | 95 | 1028.3 |
| 20260509201504 | 54 | 0 | 0.0 | 0.0 | 0.00 | 0.00 | 0.00 | 95 | 1028.2 |
| 20260509200005 | 54 | 0 | 0.0 | 0.0 | 0.00 | 0.00 | 0.00 | 95 | 1028.1 |
| 20260509193004 | 55 | 0 | 0.0 | 0.0 | 0.00 | 0.00 | 0.00 | 95 | 1027.7 |
| 20260509191505 | 55 | 0 | 0.0 | 0.0 | 0.00 | 0.00 | 0.00 | 95 | 1027.4 |
| 20260509190005 | 55 | 139 | 0.0 | 1.0 | 0.00 | 0.00 | 0.00 | 95 | 1027.4 |
| 20260509184505 | 55 | 0 | 0.0 | 0.0 | 0.00 | 0.00 | 0.00 | 95 | 1027.2 |
| 20260509183004 | 55 | 0 | 0.0 | 0.0 | 0.00 | 0.00 | 0.00 | 95 | 1027.2 |
| 20260509181504 | 55 | 0 | 0.0 | 0.0 | 0.00 | 0.00 | 0.00 | 95 | 1027.0 |
| 20260509180005 | 55 | 0 | 0.0 | 0.0 | 0.00 | 0.00 | 0.00 | 95 | 1027.0 |
| 20260509174504 | 55 | 0 | 0.0 | 0.0 | 0.00 | 0.00 | 0.00 | 95 | 1027.0 |
| 20260509171504 | 55 | 0 | 0.0 | 0.0 | 0.00 | 0.00 | 0.00 | 95 | 1027.0 |
| 20260509170005 | 55 | 0 | 0.0 | 0.0 | 0.00 | 0.00 | 0.00 | 95 | 1027.1 |
| 20260509164504 | 55 | 0 | 0.0 | 0.0 | 0.00 | 0.01 | 0.00 | 95 | 1027.2 |
| 20260509163004 | 55 | 0 | 0.0 | 0.0 | 0.00 | 0.01 | 0.00 | 94 | 1027.1 |
| 20260509161504 | 56 | 124 | 0.0 | 2.0 | 0.00 | 0.01 | 0.00 | 94 | 1027.3 |
| 20260509160005 | 55 | 0 | 0.0 | 0.0 | 0.00 | 0.01 | 0.00 | 95 | 1027.2 |
| 20260509154504 | 55 | 0 | 0.0 | 0.0 | 0.00 | 0.01 | 0.00 | 94 | 1027.2 |
| 20260509153005 | 56 | 0 | 0.0 | 0.0 | 0.00 | 0.01 | 0.00 | 94 | 1027.3 |
| 20260509151504 | 56 | 0 | 0.0 | 0.0 | 0.00 | 0.01 | 0.00 | 95 | 1027.3 |
| 20260509150004 | 55 | 0 | 0.0 | 0.0 | 0.00 | 0.01 | 0.00 | 94 | 1027.3 |
| 20260509144504 | 55 | 0 | 0.0 | 0.0 | 0.00 | 0.01 | 0.00 | 94 | 1027.3 |
| 20260509143004 | 55 | 0 | 0.0 | 0.0 | 0.00 | 0.01 | 0.00 | 94 | 1027.3 |
| 20260509141504 | 55 | 0 | 0.0 | 0.0 | 0.00 | 0.01 | 0.00 | 94 | 1027.3 |
| 20260509140035 | 55 | 0 | 0.0 | 0.0 | 0.00 | 0.01 | 0.00 | 94 | 1027.4 |
| 20260509134504 | 55 | 0 | 0.0 | 0.0 | 0.00 | 0.01 | 0.01 | 94 | 1027.4 |
| 20260509133005 | 55 | 0 | 0.0 | 0.0 | 0.00 | 0.01 | 0.01 | 94 | 1027.3 |
| 20260509131504 | 55 | 0 | 0.0 | 0.0 | 0.00 | 0.01 | 0.01 | 94 | 1027.5 |
| 20260509130005 | 54 | 0 | 0.0 | 0.0 | 0.00 | 0.01 | 0.01 | 94 | 1027.4 |
| 20260509124504 | 54 | 0 | 0.0 | 0.0 | 0.00 | 0.01 | 0.01 | 94 | 1027.5 |
| 20260509123004 | 54 | 0 | 0.0 | 0.0 | 0.00 | 0.01 | 0.01 | 94 | 1027.5 |
| 20260509121505 | 54 | 0 | 0.0 | 0.0 | 0.00 | 0.01 | 0.01 | 94 | 1027.4 |
| 20260509120004 | 54 | 0 | 0.0 | 0.0 | 0.00 | 0.01 | 0.01 | 94 | 1027.5 |
| 20260509114504 | 53 | 0 | 0.0 | 0.0 | 0.00 | 0.01 | 0.01 | 94 | 1027.4 |
| 20260509113004 | 53 | 0 | 0.0 | 0.0 | 0.00 | 0.01 | 0.01 | 93 | 1027.2 |
| 20260509111504 | 52 | 0 | 0.0 | 0.0 | 0.00 | 0.01 | 0.01 | 93 | 1027.2 |
| 20260509110004 | 52 | 0 | 0.0 | 0.0 | 0.00 | 0.01 | 0.01 | 92 | 1027.2 |
| 20260509104504 | 52 | 0 | 0.0 | 0.0 | 0.00 | 0.01 | 0.01 | 92 | 1027.1 |
| 20260509100005 | 52 | 0 | 0.0 | 0.0 | 0.00 | 0.01 | 0.01 | 89 | 1027.0 |
| 20260509094504 | 53 | 0 | 0.0 | 0.0 | 0.00 | 0.01 | 0.01 | 89 | 1026.9 |
| 20260509093005 | 53 | 0 | 0.0 | 0.0 | 0.00 | 0.01 | 0.01 | 88 | 1026.9 |
| 20260509091504 | 54 | 0 | 0.0 | 0.0 | 0.00 | 0.01 | 0.01 | 88 | 1026.7 |
| 20260509090005 | 55 | 0 | 0.0 | 0.0 | 0.00 | 0.01 | 0.01 | 88 | 1026.7 |
| 20260509084504 | 56 | 0 | 0.0 | 0.0 | 0.00 | 0.01 | 0.01 | 88 | 1026.5 |
| 20260509083004 | 57 | 0 | 0.0 | 0.0 | 0.00 | 0.01 | 0.01 | 88 | 1026.4 |
| 20260509081504 | 57 | 0 | 0.0 | 0.0 | 0.00 | 0.01 | 0.01 | 88 | 1026.3 |
| 20260509080004 | 58 | 0 | 0.0 | 0.0 | 0.00 | 0.01 | 0.01 | 89 | 1026.2 |
| 20260509073005 | 58 | 0 | 0.0 | 0.0 | 0.00 | 0.01 | 0.01 | 88 | 1025.9 |
| 20260509071504 | 58 | 0 | 0.0 | 0.0 | 0.00 | 0.01 | 0.01 | 88 | 1025.6 |
| 20260509070005 | 58 | 0 | 0.0 | 0.0 | 0.00 | 0.01 | 0.01 | 88 | 1025.6 |
| 20260509064504 | 58 | 0 | 0.0 | 0.0 | 0.00 | 0.01 | 0.01 | 87 | 1025.5 |
| 20260509063005 | 58 | 0 | 0.0 | 0.0 | 0.00 | 0.01 | 0.01 | 87 | 1025.5 |
| 20260509061504 | 58 | 0 | 0.0 | 0.0 | 0.00 | 0.01 | 0.01 | 87 | 1025.4 |
| 20260509060005 | 58 | 0 | 0.0 | 0.0 | 0.00 | 0.01 | 0.01 | 87 | 1025.4 |
| 20260509054505 | 58 | 0 | 0.0 | 0.0 | 0.00 | 0.01 | 0.01 | 87 | 1025.3 |
| 20260509053005 | 59 | 0 | 0.0 | 0.0 | 0.00 | 0.01 | 0.01 | 88 | 1025.3 |
| 20260509051504 | 59 | 0 | 0.0 | 0.0 | 0.00 | 0.01 | 0.01 | 87 | 1025.3 |
| 20260509050005 | 59 | 0 | 0.0 | 0.0 | 0.00 | 0.01 | 0.01 | 87 | 1025.4 |
| 20260509043004 | 58 | 0 | 0.0 | 0.0 | 0.00 | 0.01 | 0.01 | 88 | 1025.4 |
| 20260509041504 | 59 | 0 | 0.0 | 0.0 | 0.00 | 0.01 | 0.01 | 90 | 1025.4 |
| 20260509040004 | 59 | 0 | 0.0 | 0.0 | 0.00 | 0.01 | 0.01 | 93 | 1025.4 |
| 20260509034504 | 57 | 0 | 0.0 | 0.0 | 0.00 | 0.01 | 0.01 | 93 | 1025.5 |
| 20260509033004 | 57 | 0 | 0.0 | 0.0 | 0.00 | 0.01 | 0.01 | 92 | 1025.5 |
| 20260509031504 | 58 | 0 | 0.0 | 0.0 | 0.00 | 0.01 | 0.01 | 93 | 1025.6 |
| 20260509030005 | 58 | 0 | 0.0 | 0.0 | 0.00 | 0.01 | 0.01 | 93 | 1025.8 |
| 20260509024504 | 58 | 0 | 0.0 | 0.0 | 0.00 | 0.01 | 0.01 | 93 | 1026.0 |
| 20260509023004 | 57 | 95 | 0.0 | 1.0 | 0.00 | 0.01 | 0.01 | 93 | 1026.2 |
| 20260509021505 | 58 | 0 | 0.0 | 0.0 | 0.00 | 0.01 | 0.01 | 92 | 1026.4 |
| 20260509020005 | 58 | 1 | 0.0 | 1.0 | 0.00 | 0.01 | 0.01 | 94 | 1026.3 |
| 20260509014504 | 56 | 118 | 0.0 | 1.0 | 0.00 | 0.01 | 0.01 | 94 | 1026.4 |
| 20260509013004 | 56 | 120 | 0.0 | 1.0 | 0.00 | 0.01 | 0.01 | 95 | 1026.4 |